Back to catalog

SL-8 R/B

AliveLEO
NORAD 8924·ROCKET BODY·🇷🇺 Russia

Launched Jun 29, 1976 from Plesetsk Cosmodrome

Loading…

Next Passes (next 24 hours)

TLE

FreshSource: Space-Track

Epoch: Sep 13, 2026, 18:45 UTC

1 08924U 76061B   26256.78138083  .00000105  00000-0  42803-4 0  9999
2 08924  74.0587  19.8636 0013663 163.7889 348.5966 14.38666681628567

Track SL-8 R/B in real time with AllMySat

Download on the App Store